Retour au catalogue

INSAT 1C

ActifCommunicationsGEO
NORAD 19330·PAYLOAD·🇮🇳 India

Lancé Jul 21, 1988 depuis Guiana Space Centre

Loading…

TLE

FraisSource: Space-Track

Époque: Sep 14, 2026, 19:13 UTC

1 19330U 88063A   26257.80101439  .00000022  00000-0  00000-0 0  9993
2 19330  11.2077 327.1981 0008171 175.0608 200.8236  1.00242942121246

Suivez INSAT 1C en temps réel avec AllMySat

Download on the App Store